Regional Weather Roundup
Issued by NWS

Home | Current Version | Previous Version | Text Only | Print | Product List | Glossary Off
Versions: 1 2 3 4 5 6 7 8 9 10 11 12 13 14 15 16 17 18 19 20 21 22 23 24 25 26 27 28 29 30 31 32 33 34 35 36 37 38 39 40 41 42 43 44 45 46 47 48 49 50

000
ASUS43 KLOT 270308
RWRIL

ILLINOIS REGIONAL WEATHER ROUNDUP
NATIONAL WEATHER SERVICE CHICAGO/ROMEOVILLE IL
900 PM CST SUN FEB 26 2017

NOTE: "FAIR" INDICATES FEW OR NO CLOUDS BELOW 12,000 FEET WITH NO
SIGNIFICANT WEATHER AND/OR OBSTRUCTIONS TO VISIBILITY.

* THESE STATIONS ARE NOT UNDER NWS QUALITY CONTROL. THEY ALSO MAY NOT
  REPORT WEATHER SUCH AS PRECIPITATION OR FOG.

ILZ001-002-007-009-015-016-024-270400-
NORTHWEST ILLINOIS

CITY           SKY/WX    TMP DP  RH WIND       PRES   REMARKS
MOLINE         MOCLDY    37  30  75 CALM      30.03R
STERLING*      MOCLDY    37  33  85 SW8       30.03R WCI  31
$$

ILZ003-004-008-010-011-017-018-270400-
NORTH CENTRAL ILLINOIS

CITY           SKY/WX    TMP DP  RH WIND       PRES   REMARKS
ROCKFORD       FAIR      37  29  72 SW6       30.02R WCI  32
FREEPORT*      FAIR      33  25  71 SW5       30.02R WCI  29
ROCHELLE*      FAIR      34  31  90 SW9       30.02R WCI  26
DE KALB*       FAIR      36  31  82 SW13      30.01R WCI  28
PERU*          CLOUDY    39  27  61 SW10      30.05R WCI  33
$$

ILZ005-006-012>014-019>023-270400-
NORTHEAST ILLINOIS

CITY           SKY/WX    TMP DP  RH WIND       PRES   REMARKS
CHICAGO-OHARE  FAIR      43  29  57 SW13      30.01R
CHICAGO-MIDWAY MOCLDY    42  23  46 SW10      30.04R
AURORA         FAIR      39  30  70 S9        30.03R WCI  33
LANSING*       FAIR      37  27  68 SW10      30.06R WCI  29
JOLIET*        MOCLDY    40  28  60 SW7       30.06R
WAUKEGAN       MOCLDY    38  28  67 SW7       29.99R WCI  33
DUPAGE AIRPORT FAIR      40  28  62 SW15      30.01R
KANKAKEE*      FAIR      32  25  73 SW8       30.09R WCI  25
WHEELING       FAIR      42  28  57 SW12      30.01R
MORRIS*        CLOUDY    37  27  65 SW7       30.05R WCI  32
ROMEOVILLE*    MOCLDY    39  30  70 SW12      30.04R WCI  31
NORTHERLY ISL    N/A     43  23  45 S7          N/A
$$

LMZ740>746-270400-
SOUTHERN LAKE MICHIGAN

STATION/POSITION SKY/WX   TEMP    WIND        PRES    VSBY  WAVE
                          AIR SEA DIR/SP/G                  HT/PER
                          (F)     (DEG/KT/KT) (MB)    (MI)  (FT/S)
HARRISON CRIB              45     220/ 18/ 23   N/A
BURNHAM HARBOR             43     200/  9/ 17   N/A
CALUMET HARBOR             41     210/  9/ 14 1016.7R
BURNS HARBOR               42     220/ 17/ 20 1017.9R
MICHIGAN CITY              41     190/ 17/ 20   N/A
$$

ILZ025>027-034>036-040-047-049-050-058-095>099-270400-
WEST-CENTRAL ILLINOIS

CITY           SKY/WX    TMP DP  RH WIND       PRES   REMARKS
QUINCY         FAIR      37  29  72 S13       30.06R WCI  29
GALESBURG*     CLOUDY    38  34  85 CALM        N/A
MACOMB*        FAIR      37  23  57 S9        30.07R WCI  30
JACKSONVILLE*  FAIR      38  28  69 S9        30.09R WCI  31
PITTSFIELD*    FAIR      38  32  76 S7        30.09R WCI  33
$$

ILZ028>032-037-038-041>044-048-051>054-059>061-270400-
CENTRAL ILLINOIS

CITY           SKY/WX    TMP DP  RH WIND       PRES   REMARKS
PONTIAC        FAIR      38  26  61 S12       30.08R WCI  31
DECATUR        FAIR      37  23  56 S9        30.10R WCI  30
PEORIA         FAIR      36  24  62 S9        30.07R WCI  29
LACON*         CLOUDY    40  25  54 SW7       30.05R
LINCOLN*       FAIR      35  25  67 S5        30.09R WCI  31
SPRINGFIELD    FAIR      40  25  55 S12       30.09R
TAYLORVILLE    FAIR      36  24  63 S7        30.11R WCI  30
$$

ILZ033-039-045-046-055>057-062-063-270400-
EAST-CENTRAL ILLINOIS

CITY           SKY/WX    TMP DP  RH WIND       PRES   REMARKS
CHAMPAIGN      FAIR      31  19  61 S9        30.11R WCI  23
RANTOUL*       FAIR      37  24  57 S7        30.10R WCI  32
MATTOON        CLOUDY    42  25  50 S8        30.11R
PARIS*         MOCLDY    36  27  70 S5        30.13R WCI  32
$$

ILZ079-100>102-270400-
SOUTHWEST ILLINOIS

CITY           SKY/WX    TMP DP  RH WIND       PRES   REMARKS
ALTON          CLOUDY    41  34  75 S14       30.12R
BELLEVILLE     MOCLDY    42  36  81 CALM      30.13R
CAHOKIA*       CLOUDY    42  33  70 CALM      30.14R
SPARTA*        LGT RAIN  43  32  66 SW7       30.15R
$$

ILZ064>066-069>071-074>076-080>082-084>086-088>090-092>094-270400-
SOUTH-CENTRAL ILLINOIS

CITY           SKY/WX    TMP DP  RH WIND       PRES   REMARKS
CARBONDALE     CLOUDY    45  29  53 N5        30.13R
CAIRO*         MOCLDY    49  26  41 CALM      30.14R
EFFINGHAM*     CLOUDY    43  31  64 S3        30.14R
MARION         CLOUDY    45  30  57 CALM      30.14S
MT. VERNON     CLOUDY    41  37  86 SW3       30.15R
CENTRALIA*     DRIZZLE   42  37  81 SW8       30.13R
SALEM*         DRIZZLE   44  33  65 S12       30.13R
METROPOLIS*    CLOUDY    47  25  42 CALM      30.14R
$$

ILZ067-068-072-073-078-083-087-091-270400-
SOUTHEAST ILLINOIS

CITY           SKY/WX    TMP DP  RH WIND       PRES   REMARKS
LAWRENCEVILLE  CLOUDY    46  27  47 SW14      30.14R
FLORA*         MOCLDY    44  31  59 S6        30.14R
FAIRFIELD*     CLOUDY    44  33  64 CALM      30.14S
HARRISBURG*    CLOUDY    44  34  67 CALM      30.14R
ROBINSON*      CLOUDY    42  25  51 S7        30.15R
CARMI*         CLOUDY    44  34  68 NW5       30.14R
$$

ABBREVIATIONS USED IN REMARKS
   TC - TEMPERATURE IN CELSIUS
  WCI - WIND CHILL INDEX
   HX - HEAT INDEX
  VSB - VISIBILITY
$$




USA.gov is the U.S. government's official web portal to all federal, state and local government web resources and services.